Location: Newark
(42.8481°N, 0.4872°E)
Time: 08:18:08
(UTC+00:00)

Vanguard 1 - Pass Details

Date: 29 October 2020
Orbit: 650 x 3833 km, 34.2° (Epoch: 28 November)

Event Time Altitude Azimuth Distance (km) Brightness Sun altitude
Rises 19:12:08 0° 283° (WNW) 7,545 15.9 -25.8°
Reaches altitude 10° 19:19:06 10° 272° (W) 6,071 15.1 -27.1°
Maximum altitude 19:31:15 24° 229° (SW) 3,938 13.4 -29.3°
Drops below altitude 10° 19:39:34 10° 181° (S) 4,006 13.1 -30.8°
Enters shadow 19:41:55 - 170° (S) 4,363 13.2 -31.2°
Sets 19:43:00 0° 166° (SSE) 4,568 - -31.4°
